Hourly Data Report for April 20, 2021

OTTAWA INTL A
ONTARIO
Current Station Operator: NAVCAN

45°19'00.000" N
75°40'00.000" W
114.90 m
6106001
71628
YOW

Download Data

Hourly Data (April 2021)
Hourly Data Report for April 20, 2021
TIME
LST
Temp Definition
°C
Dew Point Definition
°C
Rel Hum Definition
%
Precip. Amount Definition
mm

Wind Dir Definition
10's deg

Wind Spd Definition
km/h
Visibility Definition
km
Stn Press Definition
kPa
Hmdx Definition


Wind Chill Definition


Weather Definition


00:00 11.2 1.3 50   19 21 24.1 99.20     LegendNANA
01:00 11.2 2.6 55   21 18 24.1 99.22     Cloudy
02:00 9.3 4.8 73   23 13 24.1 99.20     Rain Showers
03:00 7.8 5.8 87   26 22 16.1 99.21     Rain Showers
04:00 5.7 4.5 92   29 19 12.9 99.26     Rain
05:00 5.4 4.1 91   26 16 24.1 99.30     LegendNANA
06:00 4.9 1.8 80   27 21 24.1 99.39     LegendNANA
07:00 4.4 0.6 76   25 23 24.1 99.52     Mostly Cloudy
08:00 5.6 -0.4 65   25 29 24.1 99.51     LegendNANA
09:00 5.7 -2.0 58   25 33 24.1 99.56     LegendNANA
10:00 5.9 -1.8 58   24 28 24.1 99.58     Mostly Cloudy
11:00 7.3 -2.0 52   23 27 24.1 99.61     LegendNANA
12:00 6.0 -0.9 61   25 23 24.1 99.67     LegendNANA
13:00 6.5 -3.9 47   24 31 24.1 99.72     Cloudy
14:00 6.8 -3.4 48   25 28 24.1 99.79     LegendNANA
15:00 6.0 -4.1 48   25 31 24.1 99.82     LegendNANA
16:00 5.8 -4.3 48   26 31 24.1 99.85     Cloudy
17:00 5.0 -4.2 51   23 22 24.1 99.90     LegendNANA
18:00 4.3 -4.4 53   25 28 24.1 99.93     LegendNANA
19:00 3.7 -4.6 55   24 25 24.1 99.97     Cloudy
20:00 3.5 -4.7 55   26 23 24.1 100.05     LegendNANA
21:00 3.0 -4.5 58   27 22 24.1 100.11     LegendNANA
22:00 2.5 -5.1 57   28 24 24.1 100.08     Mostly Cloudy
23:00 2.1 -4.8 61   27 21 24.1 100.00     LegendNANA

Notes on Data Quality.

Legend

  • E = Estimated
  • M = Missing
  • NA = Not Available*
  • [empty] = Indicates an unobserved value
Date modified: